Find Starlink 32751

NORAD ID: 62753 Int'l Des: 2025-014 Owner: SPXS Country: US Constellation: starlink operational
LEOCIRCULAR

Current View

Loading 3D Globe...

About Starlink 32751

Starlink 32751 (NORAD 62753) is a starlink constellation satellite (v2 mini) launched Jan 21, 2025 by SPXS of US. It operates in LEO, CIRCULAR orbit with a mass of 730.00 kg.

About Starlink 32751

Description loading...

Upcoming Passes

Passes for default location (London). Set your location on the main map for personalized predictions.

Altitude History

Loading altitude history...

Two-Line Element Set

1 62753U 25014U 26166.70341706 .00023463 00000-0 85910-3 0 9998
2 62753 43.0025 321.1819 0003134 277.8245 82.2251 15.27590100 78241
Epoch: Jun 15, 2026 • Age: 26 hours

Current Status

Altitude 485.1 km
Velocity 7.63 km/s
Sub-Earth Point 28.82°N, 84.51°W
Launch Date Jan 21, 2025
Age 1.3 years
Type internet

Technical Details

Classification Payload
Mass 730.00 kg
Dry Mass 700.00 kg
Total Mass 730.00 kg
Length 0.30 m
Diameter 4.10 m
Span 29.00 m
Shape Box + pan
Manufacturer SPXS
Bus Type Starlink V2M
Phase Status In Orbit
Owner/State SPXS/US

Most Searched